User: anonymous   Login
Location: Mentone
(34.5413°N, 85.5351°W)
Time: 23:49:02
(UTC-06:00)
Language:

ATLAS 5 CENTAUR R/B - Orbit

View from above orbital plane
View from above orbital plane
View from above satellite
View from above satellite

Ground track
Ground track

The orbit data is extracted from the following two-line orbital elements,

1 31702U 07027B   17019.78121462 0.00000170  00000-0  59352-4 0    07
2 31702  63.3692 295.2368 0254315   2.4279 357.5721 14.18537801    01
Epoch (UTC): 19 January 2017 18:44:56
Eccentricity: 0.0254315
inclination: 63.3692°
perigee height: 647 km
apogee height: 1013 km
right ascension of ascending node: 295.2368°
argument of perigee: 2.4279°
revolutions per day: 14.18537801
mean anomaly at epoch: 357.5721°
orbit number at epoch: 0

The dashed part of the orbit path shows where the satellite is in the earth's shadow,  

DLR